Private Wetterstation Wechselburg
Wetterdaten: Montag, 15.03.2021
Datum Zeit Temp. +2m Bodentemp. Temp.+5cm Temp. Wind Windchill X Diff Temp. Feuchte +2m Feuchte +5cm Luftdruck Regen Wind Richtung Richtung Sonnenschein Taupunkt Windchill Windben
15.03.2021 00:00 3,3 C 6,3 C 2,4 C 3,0 C 2,3 C 0,0 C 79 % 83 % 1013,0 hPa 0,0 l/m 1,3 km/h (1 Bft) S 180 0 min 0,0 C 2,3 C 3,1 km/h (1 Bft)
15.03.2021 00:05 3,2 C 6,3 C 2,3 C 2,9 C 2,2 C 0,0 C 79 % 83 % 1013,0 hPa 0,0 l/m 1,3 km/h (1 Bft) W-SW 247 0 min -0,1 C 2,2 C 2,9 km/h (1 Bft)
15.03.2021 00:10 3,2 C 6,3 C 2,3 C 2,9 C 2,2 C 0,0 C 79 % 83 % 1013,1 hPa 0,0 l/m 2,4 km/h (1 Bft) S 180 0 min -0,1 C 2,2 C 5,3 km/h (1 Bft)
15.03.2021 00:15 3,2 C 6,3 C 2,3 C 2,7 C 1,8 C 0,0 C 79 % 83 % 1013,1 hPa 0,0 l/m 3,2 km/h (1 Bft) S-SO 157 0 min -0,1 C 1,8 C 4,2 km/h (1 Bft)
15.03.2021 00:20 3,1 C 6,2 C 2,3 C 2,7 C 1,8 C 0,0 C 79 % 83 % 1013,1 hPa 0,0 l/m 3,4 km/h (1 Bft) S-SO 157 0 min -0,2 C 1,8 C 10,3 km/h (2 Bft)
15.03.2021 00:25 3,1 C 6,2 C 2,2 C 2,8 C 2,2 C 0,0 C 79 % 83 % 1013,1 hPa 0,0 l/m 2,7 km/h (1 Bft) NO 45 0 min -0,2 C 2,2 C 0,0 km/h (0 Bft)
15.03.2021 00:30 3,0 C 6,2 C 2,2 C 2,7 C 2,1 C 0,0 C 79 % 84 % 1013,1 hPa 0,0 l/m 1,9 km/h (1 Bft) S-SO 157 0 min -0,3 C 2,1 C 2,4 km/h (1 Bft)
15.03.2021 00:35 3,1 C 6,2 C 2,2 C 2,7 C 2,0 C 0,0 C 79 % 84 % 1013,1 hPa 0,0 l/m 1,1 km/h (1 Bft) W-SW 247 0 min -0,2 C 2,0 C 0,0 km/h (0 Bft)
15.03.2021 00:40 2,9 C 6,2 C 2,3 C 2,6 C 2,1 C 0,0 C 79 % 84 % 1013,1 hPa 0,0 l/m 0,6 km/h (0 Bft) S-SO 157 0 min -0,4 C 2,1 C 0,0 km/h (0 Bft)
15.03.2021 00:45 3,1 C 6,2 C 2,4 C 2,8 C 2,3 C 0,0 C 79 % 84 % 1013,1 hPa 0,0 l/m 1,0 km/h (0 Bft) S 180 0 min -0,2 C 2,3 C 4,3 km/h (1 Bft)
15.03.2021 00:50 3,1 C 6,2 C 2,4 C 2,9 C 2,4 C 0,0 C 80 % 84 % 1012,7 hPa 0,0 l/m 2,1 km/h (1 Bft) S-SW 202 0 min -0,0 C 2,4 C 3,9 km/h (1 Bft)
15.03.2021 00:55 3,1 C 6,2 C 2,5 C 2,9 C 2,6 C 0,0 C 80 % 84 % 1012,7 hPa 0,0 l/m 2,3 km/h (1 Bft) SW 225 0 min -0,0 C 2,6 C 3,2 km/h (1 Bft)
15.03.2021 01:00 3,1 C 6,2 C 2,6 C 3,0 C 2,8 C 0,0 C 80 % 84 % 1012,7 hPa 0,0 l/m 1,6 km/h (1 Bft) O-NO 67 0 min -0,0 C 2,8 C 0,0 km/h (0 Bft)
15.03.2021 01:05 3,1 C 6,2 C 2,7 C 3,0 C 2,9 C 0,0 C 80 % 84 % 1012,7 hPa 0,0 l/m 1,9 km/h (1 Bft) S-SW 202 0 min -0,0 C 2,9 C 4,8 km/h (1 Bft)
15.03.2021 01:10 3,2 C 6,2 C 2,7 C 3,1 C 3,0 C 0,0 C 80 % 84 % 1012,7 hPa 0,0 l/m 2,3 km/h (1 Bft) SW 225 0 min 0,1 C 3,0 C 4,5 km/h (1 Bft)
15.03.2021 01:15 3,2 C 6,2 C 2,8 C 3,2 C 3,1 C 0,0 C 80 % 84 % 1012,7 hPa 0,0 l/m 1,9 km/h (1 Bft) S 180 0 min 0,1 C 3,1 C 0,0 km/h (0 Bft)
15.03.2021 01:20 3,3 C 6,2 C 2,9 C 3,3 C 3,2 C 0,0 C 81 % 84 % 1012,7 hPa 0,0 l/m 1,8 km/h (1 Bft) W-SW 247 0 min 0,4 C 3,2 C 5,1 km/h (1 Bft)
15.03.2021 01:25 3,3 C 6,2 C 2,9 C 3,3 C 3,2 C 0,0 C 80 % 84 % 1012,7 hPa 0,0 l/m 1,6 km/h (1 Bft) SW 225 0 min 0,2 C 3,2 C 4,0 km/h (1 Bft)
15.03.2021 01:30 3,3 C 6,2 C 2,9 C 3,3 C 3,2 C 0,0 C 81 % 83 % 1012,6 hPa 0,0 l/m 2,4 km/h (1 Bft) S-SO 157 0 min 0,4 C 3,2 C 1,8 km/h (1 Bft)
15.03.2021 01:35 3,3 C 6,2 C 2,7 C 3,1 C 2,7 C 0,0 C 81 % 84 % 1012,6 hPa 0,0 l/m 3,2 km/h (1 Bft) W-SW 247 0 min 0,4 C 2,7 C 5,0 km/h (1 Bft)
15.03.2021 01:40 3,3 C 6,2 C 2,7 C 3,1 C 2,8 C 0,0 C 81 % 84 % 1012,6 hPa 0,0 l/m 3,1 km/h (1 Bft) S 180 0 min 0,4 C 2,8 C 14,0 km/h (3 Bft)
15.03.2021 01:45 3,3 C 6,2 C 2,8 C 3,2 C 3,0 C 0,0 C 81 % 84 % 1012,6 hPa 0,0 l/m 2,6 km/h (1 Bft) W-NW 292 0 min 0,4 C 3,0 C 0,0 km/h (0 Bft)
15.03.2021 01:50 3,3 C 6,2 C 2,8 C 3,2 C 2,9 C 0,0 C 81 % 84 % 1012,5 hPa 0,0 l/m 1,4 km/h (1 Bft) NO 45 0 min 0,4 C 2,9 C 1,6 km/h (1 Bft)
15.03.2021 01:55 3,3 C 6,2 C 2,8 C 3,2 C 2,9 C 0,0 C 81 % 84 % 1012,5 hPa 0,0 l/m 0,8 km/h (0 Bft) W-SW 247 0 min 0,4 C 2,9 C 0,0 km/h (0 Bft)
15.03.2021 02:00 3,3 C 6,2 C 2,7 C 3,1 C 2,8 C 0,0 C 81 % 84 % 1012,5 hPa 0,0 l/m 1,0 km/h (0 Bft) W-SW 247 0 min 0,4 C 2,8 C 0,0 km/h (0 Bft)
15.03.2021 02:05 3,3 C 6,2 C 2,7 C 3,1 C 2,7 C 0,0 C 81 % 84 % 1012,5 hPa 0,0 l/m 1,0 km/h (0 Bft) W-SW 247 0 min 0,4 C 2,7 C 4,3 km/h (1 Bft)
15.03.2021 02:10 3,4 C 6,2 C 2,8 C 3,2 C 2,8 C 0,0 C 81 % 84 % 1012,4 hPa 0,0 l/m 2,4 km/h (1 Bft) S 180 0 min 0,5 C 2,8 C 10,8 km/h (2 Bft)
15.03.2021 02:15 3,5 C 6,2 C 2,7 C 3,2 C 2,6 C 0,0 C 81 % 84 % 1012,4 hPa 0,0 l/m 3,2 km/h (1 Bft) S-SW 202 0 min 0,6 C 2,6 C 6,4 km/h (2 Bft)
15.03.2021 02:20 3,5 C 6,2 C 2,7 C 3,1 C 2,3 C 0,0 C 80 % 84 % 1012,4 hPa 0,0 l/m 3,9 km/h (1 Bft) SW 225 0 min 0,4 C 2,3 C 5,6 km/h (1 Bft)
15.03.2021 02:25 3,5 C 6,2 C 2,7 C 3,1 C 2,3 C 0,0 C 80 % 84 % 1012,4 hPa 0,0 l/m 3,9 km/h (1 Bft) SW 225 0 min 0,4 C 2,3 C 5,0 km/h (1 Bft)
15.03.2021 02:30 3,5 C 6,1 C 2,7 C 3,2 C 2,6 C 0,0 C 80 % 84 % 1012,4 hPa 0,0 l/m 3,2 km/h (1 Bft) S-SO 157 0 min 0,4 C 2,6 C 2,4 km/h (1 Bft)
15.03.2021 02:35 3,5 C 6,1 C 2,7 C 3,3 C 2,8 C 0,0 C 80 % 84 % 1012,4 hPa 0,0 l/m 2,1 km/h (1 Bft) NW 315 0 min 0,4 C 2,8 C 2,7 km/h (1 Bft)
15.03.2021 02:40 3,5 C 6,1 C 2,8 C 3,3 C 3,0 C 0,0 C 80 % 84 % 1012,4 hPa 0,0 l/m 1,8 km/h (1 Bft) S 180 0 min 0,4 C 3,0 C 6,4 km/h (2 Bft)
15.03.2021 02:45 3,5 C 6,1 C 2,8 C 3,3 C 3,0 C 0,0 C 80 % 84 % 1012,4 hPa 0,0 l/m 1,9 km/h (1 Bft) NW 315 0 min 0,4 C 3,0 C 0,0 km/h (0 Bft)
15.03.2021 02:50 3,4 C 6,1 C 2,8 C 3,2 C 2,9 C 0,0 C 80 % 84 % 1012,1 hPa 0,0 l/m 1,1 km/h (1 Bft) W 270 0 min 0,3 C 2,9 C 0,0 km/h (0 Bft)
15.03.2021 02:55 3,4 C 6,1 C 2,7 C 3,2 C 2,8 C 0,0 C 80 % 84 % 1012,1 hPa 0,0 l/m 1,3 km/h (1 Bft) S 180 0 min 0,3 C 2,8 C 6,1 km/h (2 Bft)
15.03.2021 03:00 3,5 C 6,1 C 2,8 C 3,3 C 3,0 C 0,0 C 80 % 84 % 1012,1 hPa 0,0 l/m 2,6 km/h (1 Bft) W 270 0 min 0,4 C 3,0 C 3,1 km/h (1 Bft)
15.03.2021 03:05 3,5 C 6,1 C 2,8 C 3,2 C 2,6 C 0,0 C 80 % 84 % 1012,1 hPa 0,0 l/m 3,4 km/h (1 Bft) SW 225 0 min 0,4 C 2,6 C 4,7 km/h (1 Bft)
15.03.2021 03:10 3,5 C 6,1 C 2,9 C 3,2 C 2,7 C 0,0 C 80 % 84 % 1012,2 hPa 0,0 l/m 3,7 km/h (1 Bft) O-SO 112 0 min 0,4 C 2,7 C 3,7 km/h (1 Bft)
15.03.2021 03:15 3,6 C 6,1 C 2,9 C 3,3 C 2,6 C 0,0 C 80 % 83 % 1012,2 hPa 0,0 l/m 4,0 km/h (1 Bft) NW 315 0 min 0,5 C 2,6 C 5,8 km/h (2 Bft)
15.03.2021 03:20 3,5 C 6,1 C 2,9 C 3,4 C 3,1 C 0,0 C 80 % 83 % 1012,2 hPa 0,0 l/m 2,1 km/h (1 Bft) SW 225 0 min 0,4 C 3,1 C 3,1 km/h (1 Bft)
15.03.2021 03:25 3,5 C 6,1 C 2,8 C 3,3 C 3,0 C 0,0 C 80 % 84 % 1012,2 hPa 0,0 l/m 1,1 km/h (1 Bft) O-NO 67 0 min 0,4 C 3,0 C 0,0 km/h (0 Bft)
15.03.2021 03:30 3,5 C 6,1 C 2,8 C 3,3 C 2,9 C 0,0 C 80 % 83 % 1011,8 hPa 0,0 l/m 0,5 km/h (0 Bft) S 180 0 min 0,4 C 2,9 C 0,0 km/h (0 Bft)
15.03.2021 03:35 3,4 C 6,1 C 2,7 C 3,2 C 2,8 C 0,0 C 80 % 83 % 1011,8 hPa 0,0 l/m 0,3 km/h (0 Bft) SO 135 0 min 0,3 C 2,8 C 0,0 km/h (0 Bft)
15.03.2021 03:40 3,3 C 6,1 C 2,7 C 3,1 C 2,6 C 0,0 C 80 % 84 % 1011,8 hPa 0,0 l/m 0,5 km/h (0 Bft) S-SO 157 0 min 0,2 C 2,6 C 0,0 km/h (0 Bft)
15.03.2021 03:45 3,3 C 6,1 C 2,7 C 3,1 C 2,7 C 0,0 C 80 % 84 % 1011,8 hPa 0,0 l/m 0,5 km/h (0 Bft) NO 45 0 min 0,2 C 2,7 C 0,0 km/h (0 Bft)
15.03.2021 03:50 3,3 C 6,1 C 2,8 C 3,1 C 2,8 C 0,0 C 80 % 84 % 1011,6 hPa 0,0 l/m 0,2 km/h (0 Bft) NW 315 0 min 0,2 C 2,8 C 0,0 km/h (0 Bft)
15.03.2021 03:55 3,2 C 6,1 C 2,8 C 3,1 C 2,9 C 0,0 C 80 % 84 % 1011,6 hPa 0,0 l/m 0,2 km/h (0 Bft) O-SO 112 0 min 0,1 C 2,9 C 0,0 km/h (0 Bft)
15.03.2021 04:00 3,3 C 6,1 C 2,9 C 3,2 C 3,0 C 0,0 C 80 % 84 % 1011,6 hPa 0,0 l/m 0,3 km/h (0 Bft) W-NW 292 0 min 0,2 C 3,0 C 0,0 km/h (0 Bft)
15.03.2021 04:05 3,3 C 6,1 C 2,9 C 3,2 C 3,0 C 0,0 C 80 % 84 % 1011,6 hPa 0,0 l/m 0,2 km/h (0 Bft) O-SO 112 0 min 0,2 C 3,0 C 0,0 km/h (0 Bft)
15.03.2021 04:10 3,3 C 6,1 C 2,9 C 3,2 C 3,0 C 0,0 C 80 % 83 % 1011,6 hPa 0,0 l/m 0,2 km/h (0 Bft) SO 135 0 min 0,2 C 3,0 C 0,0 km/h (0 Bft)
15.03.2021 04:15 3,3 C 6,1 C 2,9 C 3,2 C 3,0 C 0,0 C 80 % 83 % 1011,6 hPa 0,0 l/m 0,3 km/h (0 Bft) S-SW 202 0 min 0,2 C 3,0 C 2,7 km/h (1 Bft)
15.03.2021 04:20 3,3 C 6,1 C 2,9 C 3,2 C 3,0 C 0,0 C 80 % 83 % 1011,6 hPa 0,0 l/m 0,3 km/h (0 Bft) SW 225 0 min 0,2 C 3,0 C 0,0 km/h (0 Bft)
15.03.2021 04:25 3,3 C 6,1 C 2,8 C 3,2 C 3,0 C 0,0 C 81 % 83 % 1011,6 hPa 0,0 l/m 0,5 km/h (0 Bft) S 180 0 min 0,4 C 3,0 C 2,1 km/h (1 Bft)
15.03.2021 04:30 3,2 C 6,0 C 2,7 C 3,0 C 2,7 C 0,0 C 80 % 83 % 1011,6 hPa 0,0 l/m 0,3 km/h (0 Bft) W-SW 247 0 min 0,1 C 2,7 C 3,9 km/h (1 Bft)
15.03.2021 04:35 3,2 C 6,0 C 2,7 C 2,9 C 2,4 C 0,0 C 80 % 83 % 1011,6 hPa 0,0 l/m 0,3 km/h (0 Bft) O 90 0 min 0,1 C 2,4 C 0,0 km/h (0 Bft)
15.03.2021 04:40 3,2 C 6,0 C 2,5 C 2,9 C 2,3 C 0,0 C 80 % 84 % 1011,6 hPa 0,0 l/m 0,3 km/h (0 Bft) S 180 0 min 0,1 C 2,3 C 0,0 km/h (0 Bft)
15.03.2021 04:45 3,1 C 6,0 C 2,4 C 2,8 C 2,1 C 0,0 C 80 % 84 % 1011,6 hPa 0,0 l/m 0,2 km/h (0 Bft) S 180 0 min -0,0 C 2,1 C 0,0 km/h (0 Bft)
15.03.2021 04:50 3,1 C 6,0 C 2,2 C 2,7 C 1,8 C 0,0 C 80 % 84 % 1011,4 hPa 0,0 l/m 0,0 km/h (0 Bft) NO 45 0 min -0,0 C 1,8 C 0,0 km/h (0 Bft)
15.03.2021 04:55 2,9 C 6,0 C 2,1 C 2,5 C 1,7 C 0,0 C 80 % 84 % 1011,4 hPa 0,0 l/m 0,2 km/h (0 Bft) S 180 0 min -0,2 C 1,7 C 2,6 km/h (1 Bft)
15.03.2021 05:00 2,9 C 6,0 C 2,0 C 2,4 C 1,5 C 0,0 C 80 % 84 % 1011,4 hPa 0,0 l/m 0,2 km/h (0 Bft) O-SO 112 0 min -0,2 C 1,5 C 0,0 km/h (0 Bft)
15.03.2021 05:05 2,8 C 6,0 C 2,0 C 2,3 C 1,4 C 0,0 C 80 % 85 % 1011,4 hPa 0,0 l/m 0,2 km/h (0 Bft) SO 135 0 min -0,3 C 1,4 C 0,0 km/h (0 Bft)
15.03.2021 05:10 2,7 C 6,0 C 2,0 C 2,2 C 1,3 C 0,0 C 81 % 85 % 1011,2 hPa 0,0 l/m 0,0 km/h (0 Bft) N-NW 337 0 min -0,2 C 1,3 C 0,0 km/h (0 Bft)
15.03.2021 05:15 2,7 C 6,0 C 2,0 C 2,2 C 1,3 C 0,0 C 81 % 85 % 1011,2 hPa 0,0 l/m 0,2 km/h (0 Bft) S 180 0 min -0,2 C 1,3 C 0,0 km/h (0 Bft)
15.03.2021 05:20 2,7 C 6,0 C 1,9 C 2,2 C 1,2 C 0,0 C 81 % 85 % 1011,2 hPa 0,0 l/m 0,2 km/h (0 Bft) O 90 0 min -0,2 C 1,2 C 0,0 km/h (0 Bft)
15.03.2021 05:25 2,7 C 6,0 C 1,9 C 2,2 C 1,3 C 0,0 C 81 % 85 % 1011,2 hPa 0,0 l/m 0,2 km/h (0 Bft) S-SO 157 0 min -0,2 C 1,3 C 1,8 km/h (1 Bft)
15.03.2021 05:30 2,6 C 6,0 C 1,9 C 2,2 C 1,3 C 0,0 C 81 % 85 % 1011,3 hPa 0,0 l/m 0,6 km/h (0 Bft) S-SO 157 0 min -0,3 C 1,3 C 3,1 km/h (1 Bft)
15.03.2021 05:35 2,7 C 6,0 C 1,9 C 2,3 C 1,4 C 0,0 C 81 % 86 % 1011,3 hPa 0,0 l/m 1,6 km/h (1 Bft) S-SO 157 0 min -0,2 C 1,4 C 2,9 km/h (1 Bft)
15.03.2021 05:40 2,6 C 6,0 C 1,9 C 2,3 C 1,6 C 0,0 C 81 % 86 % 1011,3 hPa 0,0 l/m 1,9 km/h (1 Bft) SW 225 0 min -0,3 C 1,6 C 5,8 km/h (2 Bft)
15.03.2021 05:45 2,5 C 6,0 C 1,9 C 2,2 C 1,6 C 0,0 C 81 % 86 % 1011,3 hPa 0,0 l/m 1,8 km/h (1 Bft) SO 135 0 min -0,4 C 1,6 C 5,1 km/h (1 Bft)
15.03.2021 05:50 2,5 C 6,0 C 1,9 C 2,2 C 1,7 C 0,0 C 81 % 86 % 1011,3 hPa 0,0 l/m 1,8 km/h (1 Bft) S-SO 157 0 min -0,4 C 1,7 C 2,9 km/h (1 Bft)
15.03.2021 05:55 2,5 C 6,0 C 1,9 C 2,3 C 1,8 C 0,0 C 82 % 86 % 1011,3 hPa 0,0 l/m 1,6 km/h (1 Bft) S-SO 157 0 min -0,3 C 1,8 C 3,5 km/h (1 Bft)
15.03.2021 06:00 2,6 C 6,0 C 2,0 C 2,4 C 2,0 C 0,0 C 82 % 86 % 1011,3 hPa 0,0 l/m 1,1 km/h (1 Bft) S 180 0 min -0,2 C 2,0 C 0,0 km/h (0 Bft)
15.03.2021 06:05 2,6 C 6,0 C 2,1 C 2,4 C 2,1 C 0,0 C 82 % 86 % 1011,3 hPa 0,0 l/m 1,1 km/h (1 Bft) S-SO 157 0 min -0,2 C 2,1 C 4,5 km/h (1 Bft)
15.03.2021 06:10 2,7 C 6,0 C 2,3 C 2,6 C 2,3 C 0,0 C 82 % 86 % 1010,9 hPa 0,0 l/m 1,0 km/h (0 Bft) S-SO 157 0 min -0,1 C 2,3 C 4,2 km/h (1 Bft)
15.03.2021 06:15 2,6 C 6,0 C 2,3 C 2,5 C 2,3 C 0,0 C 82 % 85 % 1010,9 hPa 0,0 l/m 0,8 km/h (0 Bft) S 180 0 min -0,2 C 2,3 C 0,0 km/h (0 Bft)
15.03.2021 06:20 2,6 C 6,0 C 2,3 C 2,5 C 2,3 C 0,0 C 82 % 85 % 1010,9 hPa 0,0 l/m 0,6 km/h (0 Bft) W 270 0 min -0,2 C 2,3 C 0,0 km/h (0 Bft)
15.03.2021 06:25 2,6 C 6,0 C 2,3 C 2,5 C 2,3 C 0,0 C 82 % 85 % 1010,9 hPa 0,0 l/m 0,3 km/h (0 Bft) W-NW 292 0 min -0,2 C 2,3 C 0,0 km/h (0 Bft)
15.03.2021 06:30 2,7 C 6,0 C 2,3 C 2,6 C 2,3 C 0,0 C 82 % 85 % 1010,9 hPa 0,0 l/m 0,3 km/h (0 Bft) S 180 0 min -0,1 C 2,3 C 0,0 km/h (0 Bft)
15.03.2021 06:35 2,7 C 6,0 C 2,3 C 2,6 C 2,3 C 0,0 C 82 % 85 % 1010,9 hPa 0,0 l/m 0,5 km/h (0 Bft) W-SW 247 0 min -0,1 C 2,3 C 0,0 km/h (0 Bft)
15.03.2021 06:40 2,7 C 6,0 C 2,4 C 2,6 C 2,3 C 0,0 C 82 % 85 % 1010,9 hPa 0,0 l/m 0,5 km/h (0 Bft) W 270 0 min -0,1 C 2,3 C 1,9 km/h (1 Bft)
15.03.2021 06:45 2,7 C 6,0 C 2,4 C 2,6 C 2,3 C 0,0 C 82 % 85 % 1010,9 hPa 0,0 l/m 0,2 km/h (0 Bft) NO 45 0 min -0,1 C 2,3 C 0,0 km/h (0 Bft)
15.03.2021 06:50 2,8 C 6,0 C 2,4 C 2,6 C 2,2 C 0,0 C 82 % 85 % 1010,9 hPa 0,0 l/m 0,3 km/h (0 Bft) O 90 0 min 0,0 C 2,2 C 1,8 km/h (1 Bft)
15.03.2021 06:55 2,8 C 6,0 C 2,5 C 2,6 C 2,1 C 0,0 C 82 % 85 % 1010,9 hPa 0,0 l/m 1,0 km/h (0 Bft) S-SO 157 0 min 0,0 C 2,1 C 3,7 km/h (1 Bft)
15.03.2021 07:00 2,8 C 6,0 C 2,5 C 2,6 C 2,1 C 0,0 C 82 % 86 % 1010,9 hPa 0,0 l/m 1,4 km/h (1 Bft) S-SO 157 0 min 0,0 C 2,1 C 2,9 km/h (1 Bft)
15.03.2021 07:05 2,8 C 6,0 C 2,4 C 2,6 C 2,1 C 0,0 C 82 % 86 % 1010,9 hPa 0,0 l/m 1,1 km/h (1 Bft) S 180 0 min 0,0 C 2,1 C 0,0 km/h (0 Bft)
15.03.2021 07:10 2,8 C 6,0 C 2,5 C 2,5 C 2,0 C 0,0 C 82 % 86 % 1010,9 hPa 0,0 l/m 1,1 km/h (1 Bft) SO 135 0 min 0,0 C 2,0 C 4,5 km/h (1 Bft)
15.03.2021 07:15 2,8 C 6,0 C 2,5 C 2,6 C 2,1 C 0,0 C 83 % 87 % 1010,9 hPa 0,0 l/m 1,4 km/h (1 Bft) SW 225 0 min 0,2 C 2,1 C 2,7 km/h (1 Bft)
15.03.2021 07:20 2,8 C 6,0 C 2,6 C 2,6 C 2,1 C 0,0 C 83 % 87 % 1010,9 hPa 0,0 l/m 1,4 km/h (1 Bft) SO 135 0 min 0,2 C 2,1 C 2,6 km/h (1 Bft)
15.03.2021 07:25 2,9 C 6,0 C 2,7 C 2,7 C 2,2 C 0,0 C 83 % 87 % 1010,9 hPa 0,0 l/m 1,0 km/h (0 Bft) S-SO 157 0 min 0,3 C 2,2 C 3,5 km/h (1 Bft)
15.03.2021 07:30 2,9 C 6,0 C 2,7 C 2,7 C 2,2 C 0,0 C 83 % 87 % 1010,9 hPa 0,0 l/m 0,6 km/h (0 Bft) S-SO 157 0 min 0,3 C 2,2 C 1,9 km/h (1 Bft)
15.03.2021 07:35 3,0 C 6,0 C 2,7 C 2,8 C 2,3 C 0,0 C 83 % 87 % 1010,9 hPa 0,0 l/m 0,8 km/h (0 Bft) O-SO 112 0 min 0,4 C 2,3 C 1,8 km/h (1 Bft)
15.03.2021 07:40 3,1 C 6,0 C 2,8 C 2,8 C 2,3 C 0,0 C 83 % 87 % 1010,9 hPa 0,0 l/m 0,8 km/h (0 Bft) S 180 0 min 0,5 C 2,3 C 0,0 km/h (0 Bft)
15.03.2021 07:45 3,1 C 6,0 C 2,9 C 2,9 C 2,5 C 0,0 C 83 % 87 % 1010,9 hPa 0,0 l/m 0,6 km/h (0 Bft) W-SW 247 0 min 0,5 C 2,5 C 0,0 km/h (0 Bft)
15.03.2021 07:50 3,1 C 6,0 C 3,0 C 2,9 C 2,6 C 0,0 C 83 % 87 % 1010,8 hPa 0,0 l/m 0,6 km/h (0 Bft) W-SW 247 0 min 0,5 C 2,6 C 0,0 km/h (0 Bft)
15.03.2021 07:55 3,3 C 6,0 C 3,1 C 3,1 C 2,7 C 0,0 C 83 % 87 % 1010,8 hPa 0,0 l/m 0,6 km/h (0 Bft) SO 135 0 min 0,7 C 2,7 C 0,0 km/h (0 Bft)
15.03.2021 08:00 3,3 C 6,0 C 3,1 C 3,1 C 2,7 C 0,0 C 83 % 87 % 1010,8 hPa 0,0 l/m 0,5 km/h (0 Bft) SO 135 0 min 0,7 C 2,7 C 1,6 km/h (1 Bft)
15.03.2021 08:05 3,3 C 6,0 C 3,2 C 3,1 C 2,7 C 0,0 C 83 % 86 % 1010,8 hPa 0,0 l/m 0,5 km/h (0 Bft) S-SO 157 0 min 0,7 C 2,7 C 6,6 km/h (2 Bft)
15.03.2021 08:10 3,5 C 6,0 C 3,3 C 3,3 C 2,9 C 0,0 C 84 % 86 % 1010,8 hPa 0,0 l/m 0,8 km/h (0 Bft) NW 315 0 min 1,1 C 2,9 C 0,0 km/h (0 Bft)
15.03.2021 08:15 3,5 C 6,0 C 3,3 C 3,3 C 3,0 C 0,0 C 84 % 86 % 1010,8 hPa 0,0 l/m 1,0 km/h (0 Bft) W-SW 247 0 min 1,1 C 3,0 C 1,9 km/h (1 Bft)
15.03.2021 08:20 3,6 C 6,0 C 3,5 C 3,4 C 3,1 C 0,0 C 84 % 87 % 1010,8 hPa 0,0 l/m 1,0 km/h (0 Bft) SW 225 0 min 1,2 C 3,1 C 0,0 km/h (0 Bft)
15.03.2021 08:25 3,6 C 6,0 C 3,4 C 3,4 C 3,1 C 0,0 C 84 % 87 % 1010,8 hPa 0,0 l/m 1,8 km/h (1 Bft) W-SW 247 0 min 1,2 C 3,1 C 4,0 km/h (1 Bft)
15.03.2021 08:30 3,6 C 6,0 C 3,5 C 3,4 C 3,1 C 0,0 C 83 % 87 % 1010,6 hPa 0,0 l/m 2,3 km/h (1 Bft) NW 315 0 min 1,0 C 3,1 C 3,5 km/h (1 Bft)
15.03.2021 08:35 3,7 C 6,0 C 3,4 C 3,5 C 3,2 C 0,0 C 83 % 87 % 1010,6 hPa 0,0 l/m 2,1 km/h (1 Bft) W-SW 247 0 min 1,1 C 3,2 C 5,5 km/h (1 Bft)
15.03.2021 08:40 3,7 C 6,0 C 3,5 C 3,5 C 3,2 C 0,0 C 83 % 87 % 1010,6 hPa 0,0 l/m 2,4 km/h (1 Bft) W-SW 247 0 min 1,1 C 3,2 C 0,0 km/h (0 Bft)
15.03.2021 08:45 3,7 C 6,0 C 3,4 C 3,4 C 2,9 C 0,0 C 83 % 87 % 1010,6 hPa 0,0 l/m 3,2 km/h (1 Bft) W-NW 292 0 min 1,1 C 2,9 C 4,5 km/h (1 Bft)
15.03.2021 08:50 3,7 C 6,2 C 3,2 C 3,3 C 2,5 C 0,0 C 83 % 88 % 1010,8 hPa 0,0 l/m 3,5 km/h (1 Bft) SW 225 0 min 1,1 C 2,5 C 2,7 km/h (1 Bft)
15.03.2021 08:55 3,6 C 6,2 C 3,2 C 3,2 C 2,3 C 0,0 C 83 % 89 % 1010,8 hPa 0,0 l/m 3,7 km/h (1 Bft) W-SW 247 0 min 1,0 C 2,3 C 0,0 km/h (0 Bft)
15.03.2021 09:00 3,5 C 6,2 C 3,1 C 3,0 C 2,1 C 0,0 C 84 % 89 % 1010,8 hPa 0,0 l/m 4,2 km/h (1 Bft) SO 135 0 min 1,1 C 2,1 C 0,0 km/h (0 Bft)
15.03.2021 09:05 3,4 C 6,2 C 3,1 C 2,9 C 1,9 C 0,0 C 84 % 90 % 1010,8 hPa 0,7 l/m 4,8 km/h (1 Bft) S-SW 202 0 min 1,0 C 0,7 C 10,5 km/h (2 Bft)
15.03.2021 09:10 3,5 C 6,2 C 3,1 C 3,3 C 2,9 C 0,0 C 85 % 90 % 1011,1 hPa 0,0 l/m 2,9 km/h (1 Bft) W-NW 292 0 min 1,2 C 2,9 C 6,4 km/h (2 Bft)
15.03.2021 09:15 3,5 C 6,2 C 3,2 C 3,3 C 2,8 C 0,0 C 85 % 90 % 1011,1 hPa 0,0 l/m 3,1 km/h (1 Bft) S-SO 157 0 min 1,2 C 2,8 C 7,9 km/h (2 Bft)
15.03.2021 09:20 3,4 C 6,2 C 3,3 C 3,2 C 2,8 C 0,0 C 85 % 90 % 1011,1 hPa 0,0 l/m 3,4 km/h (1 Bft) W-SW 247 0 min 1,1 C 2,8 C 3,2 km/h (1 Bft)
15.03.2021 09:25 3,5 C 6,2 C 3,3 C 3,4 C 3,1 C 0,0 C 85 % 90 % 1011,1 hPa 0,0 l/m 3,1 km/h (1 Bft) N-NO 22 0 min 1,2 C 3,1 C 0,0 km/h (0 Bft)
15.03.2021 09:30 3,5 C 6,2 C 3,3 C 3,4 C 3,2 C 0,0 C 85 % 91 % 1010,9 hPa 0,0 l/m 1,9 km/h (1 Bft) S 180 0 min 1,2 C 3,2 C 0,0 km/h (0 Bft)
15.03.2021 09:35 3,5 C 6,2 C 3,2 C 3,4 C 3,2 C 0,0 C 85 % 91 % 1010,9 hPa 0,0 l/m 1,8 km/h (1 Bft) S-SO 157 0 min 1,2 C 3,2 C 5,6 km/h (1 Bft)
15.03.2021 09:40 3,6 C 6,2 C 3,2 C 3,5 C 3,2 C 0,0 C 85 % 91 % 1010,9 hPa 0,0 l/m 1,6 km/h (1 Bft) S-SO 157 0 min 1,3 C 3,2 C 5,6 km/h (1 Bft)
15.03.2021 09:45 3,6 C 6,2 C 3,2 C 3,5 C 3,2 C 0,0 C 85 % 91 % 1010,9 hPa 0,0 l/m 1,9 km/h (1 Bft) S-SO 157 0 min 1,3 C 3,2 C 0,0 km/h (0 Bft)
15.03.2021 09:50 3,6 C 6,2 C 3,1 C 3,2 C 2,3 C 0,0 C 85 % 91 % 1010,8 hPa 0,0 l/m 3,9 km/h (1 Bft) S 180 0 min 1,3 C 2,3 C 6,3 km/h (2 Bft)
15.03.2021 09:55 3,6 C 6,2 C 3,1 C 3,2 C 2,3 C 0,0 C 85 % 91 % 1010,8 hPa 0,7 l/m 3,9 km/h (1 Bft) NO 45 0 min 1,3 C 2,3 C 6,1 km/h (2 Bft)
15.03.2021 10:00 3,6 C 6,2 C 3,2 C 3,4 C 3,1 C 0,0 C 86 % 91 % 1010,8 hPa 0,0 l/m 2,1 km/h (1 Bft) NW 315 0 min 1,5 C 3,1 C 0,0 km/h (0 Bft)
15.03.2021 10:05 3,6 C 6,2 C 3,3 C 3,5 C 3,3 C 0,0 C 86 % 92 % 1010,8 hPa 0,0 l/m 1,3 km/h (1 Bft) S 180 0 min 1,5 C 3,3 C 2,6 km/h (1 Bft)
15.03.2021 10:10 3,7 C 6,2 C 3,4 C 3,6 C 3,4 C 0,0 C 86 % 92 % 1010,6 hPa 0,0 l/m 1,1 km/h (1 Bft) W-NW 292 0 min 1,6 C 3,4 C 2,1 km/h (1 Bft)
15.03.2021 10:15 3,7 C 6,2 C 3,4 C 3,6 C 3,4 C 0,0 C 86 % 92 % 1010,6 hPa 0,0 l/m 1,3 km/h (1 Bft) SW 225 0 min 1,6 C 3,4 C 0,0 km/h (0 Bft)
15.03.2021 10:20 3,9 C 6,2 C 3,5 C 3,7 C 3,4 C 0,0 C 86 % 92 % 1010,6 hPa 0,7 l/m 1,6 km/h (1 Bft) W 270 0 min 1,8 C 3,4 C 0,0 km/h (0 Bft)
15.03.2021 10:25 3,8 C 6,2 C 3,4 C 3,7 C 3,5 C 0,0 C 86 % 92 % 1010,6 hPa 0,0 l/m 1,3 km/h (1 Bft) S-SO 157 0 min 1,7 C 3,5 C 3,4 km/h (1 Bft)
15.03.2021 10:30 3,9 C 6,2 C 3,4 C 3,6 C 2,9 C 0,0 C 86 % 92 % 1010,6 hPa 0,0 l/m 3,7 km/h (1 Bft) S-SO 157 0 min 1,8 C 2,9 C 7,4 km/h (2 Bft)
15.03.2021 10:35 3,8 C 6,2 C 3,4 C 3,4 C 2,7 C 0,0 C 86 % 92 % 1010,6 hPa 0,0 l/m 4,0 km/h (1 Bft) W-SW 247 0 min 1,7 C 2,7 C 5,3 km/h (1 Bft)
15.03.2021 10:40 3,8 C 6,2 C 3,5 C 3,5 C 2,8 C 0,0 C 86 % 92 % 1010,6 hPa 0,0 l/m 3,9 km/h (1 Bft) SW 225 0 min 1,7 C 2,8 C 7,1 km/h (2 Bft)
15.03.2021 10:45 3,9 C 6,2 C 3,5 C 3,4 C 2,3 C 0,0 C 86 % 92 % 1010,6 hPa 0,0 l/m 4,8 km/h (1 Bft) SW 225 0 min 1,8 C 1,1 C 7,4 km/h (2 Bft)
15.03.2021 10:50 3,9 C 6,2 C 3,5 C 3,2 C 1,7 C 0,0 C 86 % 92 % 1010,6 hPa 0,7 l/m 6,6 km/h (2 Bft) W-SW 247 0 min 1,8 C -0,3 C 16,9 km/h (3 Bft)
15.03.2021 10:55 3,9 C 6,2 C 3,4 C 3,3 C 1,3 C 0,0 C 86 % 92 % 1010,6 hPa 0,0 l/m 7,7 km/h (2 Bft) S 180 0 min 1,8 C -1,1 C 8,5 km/h (2 Bft)
15.03.2021 11:00 3,9 C 6,2 C 3,4 C 3,0 C 1,3 C 0,0 C 86 % 92 % 1010,6 hPa 0,0 l/m 7,7 km/h (2 Bft) S-SW 202 0 min 1,8 C -1,1 C 18,8 km/h (3 Bft)
15.03.2021 11:05 3,9 C 6,2 C 3,4 C 3,2 C 1,1 C 0,0 C 86 % 92 % 1010,6 hPa 0,0 l/m 8,7 km/h (2 Bft) S 180 0 min 1,8 C -1,7 C 12,9 km/h (3 Bft)
15.03.2021 11:10 3,7 C 6,2 C 3,3 C 3,0 C 0,8 C 0,0 C 86 % 92 % 1010,6 hPa 0,0 l/m 9,2 km/h (2 Bft) SW 225 0 min 1,6 C -2,1 C 7,7 km/h (2 Bft)
15.03.2021 11:15 3,7 C 6,2 C 3,4 C 3,0 C 1,0 C 0,0 C 86 % 92 % 1010,6 hPa 0,7 l/m 8,5 km/h (2 Bft) SW 225 0 min 1,6 C -1,7 C 7,6 km/h (2 Bft)
15.03.2021 11:20 3,7 C 6,2 C 3,4 C 2,9 C 1,4 C 0,0 C 86 % 92 % 1010,6 hPa 0,0 l/m 7,4 km/h (2 Bft) SW 225 0 min 1,6 C -0,9 C 7,9 km/h (2 Bft)
15.03.2021 11:25 3,7 C 6,2 C 3,3 C 3,0 C 1,6 C 0,0 C 86 % 92 % 1010,6 hPa 0,0 l/m 6,8 km/h (2 Bft) S-SW 202 0 min 1,6 C -0,5 C 7,4 km/h (2 Bft)
15.03.2021 11:30 3,7 C 6,2 C 3,4 C 3,0 C 1,6 C 0,0 C 86 % 92 % 1010,6 hPa 0,0 l/m 6,8 km/h (2 Bft) SW 225 0 min 1,6 C -0,5 C 10,0 km/h (2 Bft)
15.03.2021 11:35 3,7 C 6,2 C 3,3 C 2,9 C 1,4 C 0,0 C 86 % 92 % 1010,6 hPa 0,0 l/m 7,2 km/h (2 Bft) S-SW 202 0 min 1,6 C -0,8 C 12,6 km/h (3 Bft)
15.03.2021 11:40 3,7 C 6,2 C 3,4 C 3,0 C 1,5 C 0,0 C 87 % 92 % 1010,6 hPa 0,7 l/m 7,1 km/h (2 Bft) SW 225 0 min 1,7 C -0,7 C 6,8 km/h (2 Bft)
15.03.2021 11:45 3,6 C 6,2 C 3,4 C 3,0 C 1,7 C 0,0 C 87 % 92 % 1010,6 hPa 0,0 l/m 6,4 km/h (2 Bft) SW 225 0 min 1,6 C -0,2 C 7,7 km/h (2 Bft)
15.03.2021 11:50 3,6 C 6,2 C 3,5 C 3,0 C 1,9 C 0,0 C 87 % 92 % 1010,9 hPa 0,0 l/m 6,1 km/h (2 Bft) W-SW 247 0 min 1,6 C 0,1 C 10,8 km/h (2 Bft)
15.03.2021 11:55 3,6 C 6,2 C 3,7 C 3,2 C 2,3 C 0,0 C 87 % 92 % 1010,9 hPa 0,7 l/m 5,8 km/h (2 Bft) S 180 0 min 1,6 C 0,7 C 4,3 km/h (1 Bft)
15.03.2021 12:00 3,7 C 6,2 C 4,0 C 3,4 C 2,9 C 0,0 C 87 % 92 % 1010,9 hPa 0,0 l/m 5,3 km/h (1 Bft) S-SW 202 0 min 1,7 C 1,6 C 6,0 km/h (2 Bft)
15.03.2021 12:05 3,7 C 6,3 C 4,2 C 3,6 C 3,4 C 0,0 C 87 % 92 % 1010,9 hPa 0,0 l/m 5,0 km/h (1 Bft) SW 225 0 min 1,7 C 2,3 C 6,6 km/h (2 Bft)
15.03.2021 12:10 3,7 C 6,3 C 4,2 C 3,6 C 3,4 C 0,0 C 87 % 92 % 1010,6 hPa 0,0 l/m 5,0 km/h (1 Bft) SW 225 0 min 1,7 C 2,3 C 6,6 km/h (2 Bft)
15.03.2021 12:15 3,7 C 6,3 C 4,2 C 3,6 C 3,4 C 0,0 C 87 % 92 % 1010,6 hPa 0,0 l/m 5,0 km/h (1 Bft) SW 225 0 min 1,7 C 2,3 C 6,6 km/h (2 Bft)
15.03.2021 12:20 3,9 C 6,3 C 4,3 C 3,6 C 3,1 C 0,0 C 88 % 92 % 1010,6 hPa 0,0 l/m 6,3 km/h (2 Bft) SW 225 0 min 2,1 C 1,4 C 7,9 km/h (2 Bft)
15.03.2021 12:25 3,9 C 6,3 C 4,3 C 3,5 C 2,8 C 0,0 C 88 % 92 % 1010,6 hPa 0,0 l/m 6,9 km/h (2 Bft) SW 225 0 min 2,1 C 0,9 C 6,9 km/h (2 Bft)
15.03.2021 12:30 3,9 C 6,3 C 4,3 C 3,6 C 2,9 C 0,0 C 88 % 92 % 1011,1 hPa 0,0 l/m 6,6 km/h (2 Bft) W-SW 247 0 min 2,1 C 1,1 C 6,0 km/h (2 Bft)
15.03.2021 12:35 3,9 C 6,3 C 4,2 C 3,6 C 3,1 C 0,0 C 88 % 92 % 1011,1 hPa 0,0 l/m 6,3 km/h (2 Bft) S 180 0 min 2,1 C 1,4 C 10,9 km/h (2 Bft)
15.03.2021 12:40 3,9 C 6,3 C 4,3 C 3,6 C 2,9 C 0,0 C 88 % 92 % 1011,1 hPa 0,0 l/m 6,1 km/h (2 Bft) S-SW 202 0 min 2,1 C 1,3 C 8,0 km/h (2 Bft)
15.03.2021 12:45 3,9 C 6,3 C 4,2 C 3,6 C 3,0 C 0,0 C 88 % 92 % 1011,1 hPa 0,0 l/m 6,0 km/h (2 Bft) S 180 0 min 2,1 C 1,4 C 4,2 km/h (1 Bft)
15.03.2021 12:50 4,0 C 6,3 C 4,3 C 3,6 C 2,8 C 0,0 C 88 % 92 % 1010,4 hPa 0,0 l/m 6,1 km/h (2 Bft) W-SW 247 0 min 2,2 C 1,2 C 10,8 km/h (2 Bft)
15.03.2021 12:55 4,0 C 6,3 C 4,3 C 3,6 C 2,9 C 0,0 C 88 % 92 % 1010,4 hPa 0,0 l/m 6,3 km/h (2 Bft) SW 225 0 min 2,2 C 1,2 C 10,5 km/h (2 Bft)
15.03.2021 13:00 4,0 C 6,3 C 4,5 C 3,6 C 2,9 C 0,0 C 88 % 92 % 1010,4 hPa 0,0 l/m 6,8 km/h (2 Bft) SW 225 0 min 2,2 C 1,0 C 8,0 km/h (2 Bft)
15.03.2021 13:05 4,0 C 6,3 C 4,6 C 3,7 C 3,2 C 0,0 C 88 % 92 % 1010,4 hPa 0,0 l/m 6,1 km/h (2 Bft) W-SW 247 0 min 2,2 C 1,6 C 8,5 km/h (2 Bft)
15.03.2021 13:10 4,0 C 6,3 C 4,9 C 4,2 C 4,2 C 0,2 C 88 % 92 % 1010,4 hPa 0,0 l/m 4,7 km/h (1 Bft) SW 225 0 min 2,2 C 3,3 C 8,4 km/h (2 Bft)
15.03.2021 13:15 4,1 C 6,3 C 5,3 C 5,4 C 5,4 C 1,3 C 88 % 92 % 1010,4 hPa 0,0 l/m 3,9 km/h (1 Bft) S 180 0 min 2,3 C 5,4 C 3,4 km/h (1 Bft)
15.03.2021 13:20 4,2 C 6,4 C 5,4 C 6,4 C 6,4 C 2,2 C 88 % 92 % 1010,4 hPa 0,0 l/m 4,0 km/h (1 Bft) S 180 0 min 2,4 C 6,4 C 7,6 km/h (2 Bft)
15.03.2021 13:25 4,4 C 6,3 C 5,5 C 5,9 C 5,9 C 1,5 C 88 % 92 % 1010,4 hPa 0,0 l/m 4,8 km/h (1 Bft) S-SW 202 0 min 2,6 C 5,2 C 11,9 km/h (2 Bft)
15.03.2021 13:30 4,4 C 6,3 C 5,7 C 6,5 C 6,5 C 2,1 C 88 % 92 % 1010,4 hPa 0,0 l/m 4,2 km/h (1 Bft) SW 225 0 min 2,6 C 6,5 C 3,2 km/h (1 Bft)
15.03.2021 13:35 4,5 C 6,3 C 5,7 C 6,8 C 6,8 C 2,3 C 88 % 92 % 1010,4 hPa 0,0 l/m 4,2 km/h (1 Bft) SW 225 0 min 2,7 C 6,8 C 4,5 km/h (1 Bft)
15.03.2021 13:40 4,7 C 6,3 C 5,6 C 6,7 C 6,7 C 2,0 C 88 % 92 % 1010,4 hPa 0,0 l/m 4,2 km/h (1 Bft) S 180 0 min 2,9 C 6,7 C 2,4 km/h (1 Bft)
15.03.2021 13:45 4,7 C 6,3 C 5,4 C 6,6 C 6,6 C 1,9 C 87 % 92 % 1010,4 hPa 0,0 l/m 3,7 km/h (1 Bft) S-SW 202 0 min 2,7 C 6,6 C 4,3 km/h (1 Bft)
15.03.2021 13:50 4,9 C 6,2 C 5,5 C 6,4 C 6,4 C 1,5 C 87 % 92 % 1010,1 hPa 0,0 l/m 1,9 km/h (1 Bft) O-SO 112 0 min 2,9 C 6,4 C 0,0 km/h (0 Bft)
15.03.2021 13:55 4,8 C 6,2 C 5,5 C 6,5 C 6,5 C 1,7 C 87 % 92 % 1010,1 hPa 0,0 l/m 1,4 km/h (1 Bft) SW 225 0 min 2,8 C 6,5 C 3,2 km/h (1 Bft)
15.03.2021 14:00 4,9 C 6,2 C 5,2 C 6,2 C 6,2 C 1,3 C 87 % 92 % 1010,1 hPa 0,0 l/m 1,8 km/h (1 Bft) S-SW 202 0 min 2,9 C 6,2 C 3,7 km/h (1 Bft)
15.03.2021 14:05 4,9 C 6,2 C 5,1 C 6,0 C 6,0 C 1,1 C 87 % 92 % 1010,1 hPa 0,0 l/m 2,4 km/h (1 Bft) SW 225 0 min 2,9 C 6,0 C 3,2 km/h (1 Bft)
15.03.2021 14:10 5,1 C 6,2 C 5,1 C 5,9 C 5,9 C 0,8 C 86 % 92 % 1010,6 hPa 0,0 l/m 3,2 km/h (1 Bft) SW 225 0 min 3,0 C 5,9 C 4,2 km/h (1 Bft)
15.03.2021 14:15 5,0 C 6,1 C 5,4 C 6,4 C 6,4 C 1,4 C 86 % 92 % 1010,6 hPa 0,0 l/m 3,2 km/h (1 Bft) W-SW 247 0 min 2,9 C 6,4 C 11,3 km/h (2 Bft)
15.03.2021 14:20 5,6 C 6,1 C 5,9 C 9,3 C 9,3 C 3,7 C 87 % 92 % 1010,6 hPa 0,0 l/m 4,0 km/h (1 Bft) S-SW 202 5 min 3,6 C 9,3 C 7,6 km/h (2 Bft)
15.03.2021 14:25 5,7 C 6,0 C 5,8 C 8,2 C 8,2 C 2,5 C 86 % 91 % 1010,6 hPa 0,0 l/m 5,5 km/h (1 Bft) W-SW 247 0 min 3,5 C 7,6 C 7,4 km/h (2 Bft)
15.03.2021 14:30 5,5 C 6,0 C 5,5 C 6,4 C 6,4 C 0,9 C 84 % 91 % 1010,4 hPa 0,0 l/m 6,3 km/h (2 Bft) S-SW 202 0 min 3,0 C 5,2 C 2,7 km/h (1 Bft)
15.03.2021 14:35 5,7 C 6,1 C 5,8 C 7,0 C 7,0 C 1,3 C 84 % 91 % 1010,4 hPa 0,0 l/m 5,1 km/h (1 Bft) S 180 0 min 3,2 C 6,3 C 7,4 km/h (2 Bft)
15.03.2021 14:40 6,0 C 6,0 C 5,9 C 9,2 C 9,2 C 3,2 C 84 % 92 % 1010,4 hPa 0,0 l/m 3,2 km/h (1 Bft) SW 225 0 min 3,5 C 9,2 C 0,0 km/h (0 Bft)
15.03.2021 14:45 6,3 C 6,0 C 6,1 C 9,5 C 9,5 C 3,2 C 84 % 92 % 1010,4 hPa 0,0 l/m 2,7 km/h (1 Bft) SW 225 0 min 3,8 C 9,5 C 4,7 km/h (1 Bft)
15.03.2021 14:50 6,5 C 6,0 C 6,0 C 9,6 C 9,6 C 3,1 C 82 % 92 % 1010,2 hPa 0,0 l/m 3,2 km/h (1 Bft) S 180 0 min 3,7 C 9,6 C 6,0 km/h (2 Bft)
15.03.2021 14:55 6,3 C 6,0 C 6,0 C 8,7 C 8,7 C 2,4 C 81 % 92 % 1010,2 hPa 0,0 l/m 4,3 km/h (1 Bft) SW 225 0 min 3,3 C 8,7 C 0,0 km/h (0 Bft)
15.03.2021 15:00 6,3 C 6,0 C 6,0 C 8,1 C 8,1 C 1,8 C 80 % 91 % 1010,2 hPa 0,0 l/m 4,2 km/h (1 Bft) SW 225 0 min 3,1 C 8,1 C 9,3 km/h (2 Bft)
15.03.2021 15:05 6,4 C 6,0 C 6,1 C 8,2 C 8,2 C 1,8 C 79 % 91 % 1010,2 hPa 0,0 l/m 3,5 km/h (1 Bft) W-SW 247 0 min 3,0 C 8,2 C 6,9 km/h (2 Bft)
15.03.2021 15:10 6,5 C 6,0 C 6,2 C 8,3 C 8,3 C 1,8 C 78 % 91 % 1010,4 hPa 0,0 l/m 3,2 km/h (1 Bft) W 270 0 min 2,9 C 8,3 C 3,4 km/h (1 Bft)
15.03.2021 15:15 6,5 C 6,0 C 6,2 C 8,5 C 8,5 C 2,0 C 77 % 91 % 1010,4 hPa 0,0 l/m 2,7 km/h (1 Bft) W-SW 247 0 min 2,8 C 8,5 C 5,5 km/h (1 Bft)
15.03.2021 15:20 6,7 C 6,0 C 6,2 C 8,7 C 8,7 C 2,0 C 76 % 91 % 1010,4 hPa 0,0 l/m 3,7 km/h (1 Bft) SW 225 0 min 2,8 C 8,7 C 3,7 km/h (1 Bft)
15.03.2021 15:25 6,7 C 6,0 C 6,3 C 8,5 C 8,5 C 1,8 C 76 % 91 % 1010,4 hPa 0,0 l/m 4,3 km/h (1 Bft) S 180 0 min 2,8 C 8,5 C 4,5 km/h (1 Bft)
15.03.2021 15:30 6,9 C 6,0 C 6,2 C 8,5 C 8,5 C 1,6 C 74 % 90 % 1010,3 hPa 0,0 l/m 5,3 km/h (1 Bft) S-SW 202 0 min 2,6 C 8,0 C 6,9 km/h (2 Bft)
15.03.2021 15:35 6,8 C 6,0 C 6,2 C 8,6 C 8,6 C 1,8 C 74 % 90 % 1010,3 hPa 0,0 l/m 6,1 km/h (2 Bft) O-SO 112 0 min 2,5 C 7,8 C 6,9 km/h (2 Bft)
15.03.2021 15:40 6,9 C 6,0 C 6,1 C 7,6 C 7,6 C 0,7 C 73 % 90 % 1010,3 hPa 0,0 l/m 6,1 km/h (2 Bft) SW 225 0 min 2,4 C 6,7 C 7,6 km/h (2 Bft)
15.03.2021 15:45 6,9 C 6,0 C 6,3 C 7,8 C 7,8 C 0,9 C 72 % 90 % 1010,3 hPa 0,0 l/m 6,3 km/h (2 Bft) W 270 0 min 2,2 C 6,9 C 6,4 km/h (2 Bft)
15.03.2021 15:50 7,1 C 6,0 C 6,6 C 9,1 C 9,1 C 2,0 C 72 % 89 % 1010,4 hPa 0,0 l/m 6,4 km/h (2 Bft) W-SW 247 0 min 2,4 C 8,3 C 11,4 km/h (2 Bft)
15.03.2021 15:55 7,3 C 6,0 C 6,9 C 9,8 C 9,8 C 2,5 C 72 % 90 % 1010,4 hPa 0,0 l/m 5,8 km/h (2 Bft) W-SW 247 0 min 2,6 C 9,3 C 4,3 km/h (1 Bft)
15.03.2021 16:00 7,5 C 6,0 C 7,3 C 10,9 C 10,9 C 3,4 C 72 % 90 % 1010,4 hPa 0,0 l/m 5,3 km/h (1 Bft) SW 225 5 min 2,8 C 10,9 C 10,3 km/h (2 Bft)
15.03.2021 16:05 7,5 C 6,0 C 7,3 C 10,9 C 10,9 C 3,4 C 71 % 89 % 1010,4 hPa 0,0 l/m 5,5 km/h (1 Bft) S 180 5 min 2,6 C 10,9 C 8,4 km/h (2 Bft)
15.03.2021 16:10 7,6 C 6,0 C 7,2 C 10,5 C 10,5 C 2,9 C 71 % 89 % 1010,1 hPa 0,0 l/m 5,5 km/h (1 Bft) SW 225 0 min 2,7 C 10,5 C 5,0 km/h (1 Bft)
15.03.2021 16:15 7,5 C 6,0 C 7,0 C 9,8 C 9,8 C 2,3 C 71 % 89 % 1010,1 hPa 0,0 l/m 5,3 km/h (1 Bft) S 180 0 min 2,6 C 9,4 C 13,4 km/h (3 Bft)
15.03.2021 16:20 7,4 C 6,0 C 6,9 C 8,9 C 8,9 C 1,5 C 71 % 89 % 1010,1 hPa 0,0 l/m 5,5 km/h (1 Bft) SW 225 0 min 2,5 C 8,4 C 4,5 km/h (1 Bft)
15.03.2021 16:25 7,3 C 6,0 C 6,7 C 8,4 C 8,4 C 1,1 C 71 % 89 % 1010,1 hPa 0,0 l/m 5,3 km/h (1 Bft) NW 315 0 min 2,4 C 7,8 C 4,2 km/h (1 Bft)
15.03.2021 16:30 7,3 C 6,0 C 6,6 C 7,6 C 7,6 C 0,3 C 71 % 88 % 1010,4 hPa 0,0 l/m 5,8 km/h (2 Bft) S 180 0 min 2,4 C 6,8 C 9,0 km/h (2 Bft)
15.03.2021 16:35 7,1 C 6,0 C 6,5 C 7,2 C 7,2 C 0,1 C 71 % 89 % 1010,4 hPa 0,0 l/m 6,0 km/h (2 Bft) W-SW 247 0 min 2,2 C 6,3 C 6,4 km/h (2 Bft)
15.03.2021 16:40 7,1 C 6,0 C 6,3 C 7,0 C 6,8 C 0,0 C 71 % 88 % 1010,4 hPa 0,0 l/m 6,3 km/h (2 Bft) S-SW 202 0 min 2,2 C 5,7 C 6,6 km/h (2 Bft)
15.03.2021 16:45 7,0 C 6,0 C 6,3 C 6,8 C 6,4 C 0,0 C 71 % 88 % 1010,4 hPa 0,0 l/m 6,4 km/h (2 Bft) SW 225 0 min 2,1 C 5,2 C 9,5 km/h (2 Bft)
15.03.2021 16:50 7,0 C 6,0 C 6,1 C 6,9 C 6,8 C 0,0 C 71 % 89 % 1010,3 hPa 0,0 l/m 5,0 km/h (1 Bft) S-SW 202 0 min 2,1 C 6,1 C 3,4 km/h (1 Bft)
15.03.2021 16:55 6,9 C 6,0 C 6,1 C 6,9 C 6,9 C 0,0 C 72 % 89 % 1010,3 hPa 0,0 l/m 4,5 km/h (1 Bft) S-SW 202 0 min 2,2 C 6,9 C 6,1 km/h (2 Bft)
15.03.2021 17:00 6,9 C 6,0 C 6,0 C 6,8 C 6,7 C 0,0 C 73 % 89 % 1010,3 hPa 0,0 l/m 5,0 km/h (1 Bft) S-SW 202 0 min 2,4 C 6,0 C 10,5 km/h (2 Bft)
15.03.2021 17:05 6,9 C 6,0 C 5,9 C 6,6 C 6,1 C 0,0 C 72 % 88 % 1010,3 hPa 0,0 l/m 6,4 km/h (2 Bft) SW 225 0 min 2,2 C 4,9 C 8,0 km/h (2 Bft)
15.03.2021 17:10 6,8 C 6,0 C 5,8 C 6,4 C 5,7 C 0,0 C 72 % 88 % 1010,0 hPa 0,0 l/m 7,6 km/h (2 Bft) SW 225 0 min 2,1 C 4,1 C 9,2 km/h (2 Bft)
15.03.2021 17:15 6,9 C 6,0 C 5,7 C 6,4 C 5,4 C 0,0 C 72 % 88 % 1010,0 hPa 0,0 l/m 7,1 km/h (2 Bft) SW 225 0 min 2,2 C 3,8 C 8,9 km/h (2 Bft)
15.03.2021 17:20 6,5 C 6,0 C 5,5 C 5,9 C 4,7 C 0,0 C 74 % 89 % 1010,0 hPa 0,0 l/m 6,8 km/h (2 Bft) SW 225 0 min 2,2 C 3,1 C 10,6 km/h (2 Bft)
15.03.2021 17:25 6,5 C 6,0 C 5,5 C 5,9 C 4,8 C 0,0 C 74 % 89 % 1010,0 hPa 0,0 l/m 6,3 km/h (2 Bft) W-SW 247 0 min 2,2 C 3,4 C 5,1 km/h (1 Bft)
15.03.2021 17:30 6,4 C 6,0 C 5,5 C 5,9 C 4,8 C 0,0 C 75 % 89 % 1010,5 hPa 0,0 l/m 6,1 km/h (2 Bft) SW 225 0 min 2,3 C 3,5 C 6,4 km/h (2 Bft)
15.03.2021 17:35 6,4 C 6,0 C 5,5 C 5,9 C 4,9 C 0,0 C 75 % 89 % 1010,5 hPa 0,0 l/m 6,1 km/h (2 Bft) SW 225 0 min 2,3 C 3,6 C 12,2 km/h (2 Bft)
15.03.2021 17:40 6,4 C 6,0 C 5,6 C 6,0 C 4,3 C 0,0 C 75 % 88 % 1010,5 hPa 0,0 l/m 9,2 km/h (2 Bft) SW 225 0 min 2,3 C 2,0 C 19,3 km/h (3 Bft)
15.03.2021 17:45 6,4 C 6,0 C 5,5 C 5,9 C 3,9 C 0,0 C 75 % 88 % 1010,5 hPa 0,0 l/m 10,5 km/h (2 Bft) SW 225 0 min 2,3 C 1,2 C 11,3 km/h (2 Bft)
15.03.2021 17:50 6,4 C 6,0 C 5,3 C 5,8 C 4,7 C 0,0 C 75 % 89 % 1010,9 hPa 0,0 l/m 7,4 km/h (2 Bft) S 180 0 min 2,3 C 2,9 C 6,6 km/h (2 Bft)
15.03.2021 17:55 6,3 C 6,0 C 5,3 C 5,8 C 4,9 C 0,0 C 75 % 89 % 1010,9 hPa 0,0 l/m 6,9 km/h (2 Bft) S-SW 202 0 min 2,2 C 3,3 C 6,9 km/h (2 Bft)
15.03.2021 18:00 6,3 C 6,0 C 5,3 C 6,0 C 4,6 C 0,0 C 75 % 89 % 1010,9 hPa 0,0 l/m 8,2 km/h (2 Bft) W-SW 247 0 min 2,2 C 2,6 C 13,4 km/h (3 Bft)
15.03.2021 18:05 6,2 C 6,0 C 5,4 C 5,8 C 4,5 C 0,0 C 76 % 89 % 1010,9 hPa 0,0 l/m 8,5 km/h (2 Bft) W-SW 247 0 min 2,3 C 2,4 C 14,0 km/h (3 Bft)
15.03.2021 18:10 6,1 C 6,0 C 5,3 C 5,8 C 4,6 C 0,0 C 76 % 89 % 1010,8 hPa 0,0 l/m 8,2 km/h (2 Bft) SW 225 0 min 2,2 C 2,6 C 12,1 km/h (2 Bft)
15.03.2021 18:15 6,0 C 6,0 C 5,1 C 5,7 C 4,3 C 0,0 C 76 % 89 % 1010,8 hPa 0,0 l/m 9,3 km/h (2 Bft) SW 225 0 min 2,1 C 2,0 C 14,6 km/h (3 Bft)
15.03.2021 18:20 5,9 C 6,0 C 5,0 C 5,4 C 3,4 C 0,0 C 76 % 89 % 1010,8 hPa 0,0 l/m 10,9 km/h (2 Bft) W-SW 247 0 min 2,0 C 0,5 C 19,6 km/h (3 Bft)
15.03.2021 18:25 5,7 C 6,0 C 4,7 C 5,1 C 3,1 C 0,0 C 77 % 88 % 1010,8 hPa 0,0 l/m 10,1 km/h (2 Bft) S-SW 202 0 min 2,0 C 0,4 C 11,3 km/h (2 Bft)
15.03.2021 18:30 5,5 C 6,0 C 4,7 C 5,0 C 3,3 C 0,0 C 77 % 89 % 1010,9 hPa 0,0 l/m 8,4 km/h (2 Bft) NW 315 0 min 1,8 C 1,0 C 4,0 km/h (1 Bft)
15.03.2021 18:35 5,5 C 6,0 C 4,6 C 5,0 C 3,2 C 0,0 C 78 % 89 % 1010,9 hPa 0,0 l/m 9,0 km/h (2 Bft) S 180 0 min 2,0 C 0,8 C 7,1 km/h (2 Bft)
15.03.2021 18:40 5,4 C 6,0 C 4,7 C 4,9 C 4,0 C 0,0 C 78 % 90 % 1010,9 hPa 0,0 l/m 6,4 km/h (2 Bft) SW 225 0 min 1,9 C 2,4 C 11,4 km/h (2 Bft)
15.03.2021 18:45 5,5 C 6,0 C 4,7 C 5,1 C 4,3 C 0,0 C 78 % 90 % 1010,9 hPa 0,0 l/m 5,6 km/h (1 Bft) SW 225 0 min 2,0 C 3,1 C 4,8 km/h (1 Bft)
15.03.2021 18:50 5,3 C 6,2 C 4,5 C 4,8 C 3,8 C 0,0 C 79 % 90 % 1011,4 hPa 0,0 l/m 5,3 km/h (1 Bft) SW 225 0 min 2,0 C 2,6 C 9,2 km/h (2 Bft)
15.03.2021 18:55 5,3 C 6,2 C 4,3 C 4,7 C 3,4 C 0,0 C 79 % 90 % 1011,4 hPa 0,0 l/m 5,3 km/h (1 Bft) SW 225 0 min 2,0 C 2,1 C 11,3 km/h (2 Bft)
15.03.2021 19:00 5,0 C 6,4 C 4,3 C 4,4 C 3,3 C 0,0 C 81 % 91 % 1011,4 hPa 0,0 l/m 4,8 km/h (1 Bft) W-SW 247 0 min 2,0 C 2,2 C 10,1 km/h (2 Bft)
15.03.2021 19:05 4,8 C 6,4 C 3,9 C 4,2 C 3,0 C 0,0 C 81 % 91 % 1011,4 hPa 0,7 l/m 4,8 km/h (1 Bft) W-SW 247 0 min 1,8 C 1,9 C 5,3 km/h (1 Bft)
15.03.2021 19:10 4,4 C 6,5 C 3,5 C 3,5 C 1,8 C 0,0 C 82 % 91 % 1011,9 hPa 0,7 l/m 6,1 km/h (2 Bft) W-SW 247 0 min 1,6 C 0,0 C 21,2 km/h (4 Bft)
15.03.2021 19:15 4,3 C 6,4 C 3,5 C 3,5 C 1,9 C 0,0 C 82 % 91 % 1011,9 hPa 0,0 l/m 5,5 km/h (1 Bft) W-SW 247 0 min 1,5 C 0,4 C 10,0 km/h (2 Bft)
15.03.2021 19:20 4,1 C 6,4 C 3,3 C 3,7 C 3,0 C 0,0 C 83 % 92 % 1011,9 hPa 0,0 l/m 2,9 km/h (1 Bft) SW 225 0 min 1,5 C 3,0 C 0,0 km/h (0 Bft)
15.03.2021 19:25 4,0 C 6,4 C 3,3 C 3,7 C 3,1 C 0,0 C 83 % 92 % 1011,9 hPa 0,0 l/m 1,9 km/h (1 Bft) SW 225 0 min 1,4 C 3,1 C 0,0 km/h (0 Bft)
15.03.2021 19:30 4,0 C 6,5 C 3,3 C 3,7 C 3,1 C 0,0 C 84 % 92 % 1011,6 hPa 0,0 l/m 1,1 km/h (1 Bft) S 180 0 min 1,5 C 3,1 C 2,4 km/h (1 Bft)
15.03.2021 19:35 4,0 C 6,5 C 3,3 C 3,7 C 3,2 C 0,0 C 84 % 92 % 1011,6 hPa 0,0 l/m 1,4 km/h (1 Bft) SW 225 0 min 1,5 C 3,2 C 0,0 km/h (0 Bft)
15.03.2021 19:40 4,0 C 6,4 C 3,3 C 3,8 C 3,3 C 0,0 C 84 % 92 % 1011,6 hPa 0,0 l/m 1,0 km/h (0 Bft) SW 225 0 min 1,5 C 3,3 C 0,0 km/h (0 Bft)
15.03.2021 19:45 4,1 C 6,4 C 3,3 C 3,8 C 3,3 C 0,0 C 85 % 92 % 1011,6 hPa 0,0 l/m 1,0 km/h (0 Bft) SW 225 0 min 1,8 C 3,3 C 2,9 km/h (1 Bft)
15.03.2021 19:50 4,1 C 6,4 C 3,3 C 3,9 C 3,4 C 0,0 C 85 % 92 % 1012,2 hPa 0,0 l/m 2,4 km/h (1 Bft) SW 225 0 min 1,8 C 3,4 C 0,0 km/h (0 Bft)
15.03.2021 19:55 4,3 C 6,4 C 3,4 C 3,8 C 2,9 C 0,0 C 85 % 92 % 1012,2 hPa 0,0 l/m 3,5 km/h (1 Bft) S 180 0 min 2,0 C 2,9 C 9,8 km/h (2 Bft)
15.03.2021 20:00 4,3 C 6,4 C 3,4 C 3,9 C 3,1 C 0,0 C 86 % 92 % 1012,2 hPa 0,0 l/m 3,4 km/h (1 Bft) S 180 0 min 2,2 C 3,1 C 5,5 km/h (1 Bft)
15.03.2021 20:05 4,2 C 6,4 C 3,5 C 3,8 C 3,0 C 0,0 C 86 % 92 % 1012,2 hPa 0,0 l/m 3,7 km/h (1 Bft) W-SW 247 0 min 2,1 C 3,0 C 5,6 km/h (1 Bft)
15.03.2021 20:10 4,3 C 6,4 C 3,5 C 3,7 C 2,6 C 0,0 C 86 % 92 % 1012,2 hPa 0,0 l/m 4,8 km/h (1 Bft) SW 225 0 min 2,2 C 1,4 C 7,9 km/h (2 Bft)
15.03.2021 20:15 4,3 C 6,4 C 3,5 C 3,8 C 2,7 C 0,0 C 86 % 92 % 1012,2 hPa 0,0 l/m 4,8 km/h (1 Bft) SW 225 0 min 2,2 C 1,6 C 4,2 km/h (1 Bft)
15.03.2021 20:20 4,3 C 6,4 C 3,5 C 3,9 C 3,1 C 0,0 C 86 % 92 % 1012,2 hPa 0,0 l/m 4,2 km/h (1 Bft) W-SW 247 0 min 2,2 C 3,1 C 4,0 km/h (1 Bft)
15.03.2021 20:25 4,3 C 6,4 C 3,5 C 4,0 C 3,4 C 0,0 C 86 % 92 % 1012,2 hPa 0,0 l/m 3,7 km/h (1 Bft) SW 225 0 min 2,2 C 3,4 C 5,1 km/h (1 Bft)
15.03.2021 20:30 4,4 C 6,4 C 3,6 C 4,0 C 3,1 C 0,0 C 86 % 92 % 1012,3 hPa 0,0 l/m 4,0 km/h (1 Bft) SW 225 0 min 2,3 C 3,1 C 4,3 km/h (1 Bft)
15.03.2021 20:35 4,4 C 6,4 C 3,6 C 4,0 C 3,2 C 0,0 C 86 % 92 % 1012,3 hPa 0,0 l/m 3,9 km/h (1 Bft) W-SW 247 0 min 2,3 C 3,2 C 2,4 km/h (1 Bft)
15.03.2021 20:40 4,4 C 6,4 C 3,6 C 4,1 C 3,4 C 0,0 C 86 % 92 % 1012,3 hPa 0,0 l/m 3,4 km/h (1 Bft) SW 225 0 min 2,3 C 3,4 C 3,7 km/h (1 Bft)
15.03.2021 20:45 4,3 C 6,4 C 3,6 C 4,1 C 3,6 C 0,0 C 86 % 92 % 1012,3 hPa 0,0 l/m 3,1 km/h (1 Bft) S-SW 202 0 min 2,2 C 3,6 C 5,0 km/h (1 Bft)
15.03.2021 20:50 4,3 C 6,4 C 3,6 C 3,9 C 3,2 C 0,0 C 86 % 92 % 1012,5 hPa 0,0 l/m 3,9 km/h (1 Bft) S-SW 202 0 min 2,2 C 3,2 C 10,9 km/h (2 Bft)
15.03.2021 20:55 4,4 C 6,4 C 3,6 C 3,9 C 2,8 C 0,0 C 86 % 92 % 1012,5 hPa 0,0 l/m 5,1 km/h (1 Bft) SW 225 0 min 2,3 C 1,5 C 7,4 km/h (2 Bft)
15.03.2021 21:00 4,5 C 6,3 C 3,6 C 3,8 C 2,3 C 0,0 C 86 % 92 % 1012,5 hPa 0,0 l/m 6,1 km/h (2 Bft) SW 225 0 min 2,4 C 0,6 C 7,1 km/h (2 Bft)
15.03.2021 21:05 4,4 C 6,3 C 3,6 C 3,8 C 2,5 C 0,0 C 86 % 92 % 1012,5 hPa 0,0 l/m 5,5 km/h (1 Bft) SW 225 0 min 2,3 C 1,0 C 9,3 km/h (2 Bft)
15.03.2021 21:10 4,5 C 6,3 C 3,7 C 3,8 C 2,4 C 0,0 C 86 % 92 % 1012,5 hPa 0,0 l/m 5,6 km/h (1 Bft) NO 45 0 min 2,4 C 0,9 C 9,3 km/h (2 Bft)
15.03.2021 21:15 4,5 C 6,3 C 3,7 C 3,8 C 2,5 C 0,0 C 86 % 92 % 1012,5 hPa 0,0 l/m 5,8 km/h (2 Bft) SW 225 0 min 2,4 C 0,9 C 20,0 km/h (4 Bft)
15.03.2021 21:20 4,7 C 6,3 C 3,6 C 4,0 C 2,6 C 0,0 C 86 % 92 % 1012,5 hPa 0,0 l/m 6,0 km/h (2 Bft) SW 225 0 min 2,6 C 1,0 C 9,3 km/h (2 Bft)
15.03.2021 21:25 4,6 C 6,3 C 3,6 C 4,0 C 2,8 C 0,0 C 86 % 92 % 1012,5 hPa 0,0 l/m 5,6 km/h (1 Bft) W-SW 247 0 min 2,5 C 1,3 C 8,2 km/h (2 Bft)
15.03.2021 21:30 4,5 C 6,3 C 3,6 C 4,1 C 3,4 C 0,0 C 85 % 92 % 1012,8 hPa 0,0 l/m 3,9 km/h (1 Bft) NW 315 0 min 2,2 C 3,4 C 4,7 km/h (1 Bft)
15.03.2021 21:35 4,5 C 6,3 C 3,6 C 4,2 C 3,7 C 0,0 C 85 % 92 % 1012,8 hPa 0,0 l/m 3,2 km/h (1 Bft) W 270 0 min 2,2 C 3,7 C 2,4 km/h (1 Bft)
15.03.2021 21:40 4,5 C 6,3 C 3,6 C 4,1 C 3,4 C 0,0 C 84 % 92 % 1012,8 hPa 0,0 l/m 3,4 km/h (1 Bft) W-SW 247 0 min 2,0 C 3,4 C 6,3 km/h (2 Bft)
15.03.2021 21:45 4,4 C 6,2 C 3,5 C 4,0 C 3,2 C 0,0 C 84 % 92 % 1012,8 hPa 0,0 l/m 3,2 km/h (1 Bft) S 180 0 min 1,9 C 3,2 C 6,3 km/h (2 Bft)
15.03.2021 21:50 4,2 C 6,3 C 3,4 C 3,7 C 2,7 C 0,0 C 84 % 92 % 1013,2 hPa 0,0 l/m 3,9 km/h (1 Bft) NW 315 0 min 1,7 C 2,7 C 3,5 km/h (1 Bft)
15.03.2021 21:55 4,2 C 6,3 C 3,3 C 3,6 C 2,5 C 0,0 C 84 % 92 % 1013,2 hPa 0,0 l/m 3,9 km/h (1 Bft) N-NW 337 0 min 1,7 C 2,5 C 2,9 km/h (1 Bft)
15.03.2021 22:00 4,0 C 6,3 C 3,1 C 3,5 C 2,6 C 0,0 C 84 % 92 % 1013,2 hPa 0,0 l/m 3,2 km/h (1 Bft) W-SW 247 0 min 1,5 C 2,6 C 1,9 km/h (1 Bft)
15.03.2021 22:05 3,9 C 6,3 C 3,0 C 3,5 C 2,7 C 0,0 C 84 % 92 % 1013,2 hPa 0,0 l/m 2,7 km/h (1 Bft) W-SW 247 0 min 1,4 C 2,7 C 0,0 km/h (0 Bft)
15.03.2021 22:10 3,9 C 6,2 C 2,9 C 3,4 C 2,4 C 0,0 C 84 % 92 % 1013,4 hPa 0,0 l/m 2,3 km/h (1 Bft) O-NO 67 0 min 1,4 C 2,4 C 0,0 km/h (0 Bft)
15.03.2021 22:15 3,9 C 6,3 C 2,9 C 3,4 C 2,5 C 0,0 C 84 % 92 % 1013,4 hPa 0,0 l/m 1,8 km/h (1 Bft) S 180 0 min 1,4 C 2,5 C 6,6 km/h (2 Bft)
15.03.2021 22:20 3,9 C 6,3 C 3,0 C 3,5 C 2,7 C 0,0 C 84 % 92 % 1013,4 hPa 0,0 l/m 1,8 km/h (1 Bft) W-SW 247 0 min 1,4 C 2,7 C 8,5 km/h (2 Bft)
15.03.2021 22:25 3,9 C 6,2 C 3,0 C 3,5 C 2,8 C 0,0 C 84 % 92 % 1013,4 hPa 0,0 l/m 2,7 km/h (1 Bft) SW 225 0 min 1,4 C 2,8 C 3,5 km/h (1 Bft)
15.03.2021 22:30 4,0 C 6,2 C 3,1 C 3,6 C 2,8 C 0,0 C 84 % 92 % 1013,4 hPa 0,0 l/m 3,1 km/h (1 Bft) S-SW 202 0 min 1,5 C 2,8 C 8,9 km/h (2 Bft)
15.03.2021 22:35 4,0 C 6,2 C 3,1 C 3,7 C 3,0 C 0,0 C 84 % 92 % 1013,4 hPa 0,0 l/m 2,6 km/h (1 Bft) SO 135 0 min 1,5 C 3,0 C 2,4 km/h (1 Bft)
15.03.2021 22:40 4,0 C 6,2 C 3,1 C 3,6 C 2,8 C 0,0 C 84 % 92 % 1013,4 hPa 0,0 l/m 3,2 km/h (1 Bft) W 270 0 min 1,5 C 2,8 C 10,1 km/h (2 Bft)
15.03.2021 22:45 4,0 C 6,2 C 3,1 C 3,6 C 2,8 C 0,0 C 84 % 92 % 1013,4 hPa 0,0 l/m 3,5 km/h (1 Bft) W-SW 247 0 min 1,5 C 2,8 C 3,2 km/h (1 Bft)
15.03.2021 22:50 4,0 C 6,2 C 3,2 C 3,7 C 3,1 C 0,0 C 84 % 92 % 1013,6 hPa 0,0 l/m 3,1 km/h (1 Bft) W-SW 247 0 min 1,5 C 3,1 C 5,5 km/h (1 Bft)
15.03.2021 22:55 4,1 C 6,2 C 3,2 C 3,8 C 3,2 C 0,0 C 84 % 92 % 1013,6 hPa 0,0 l/m 2,9 km/h (1 Bft) S 180 0 min 1,6 C 3,2 C 5,5 km/h (1 Bft)
15.03.2021 23:00 4,0 C 6,2 C 3,2 C 3,8 C 3,4 C 0,0 C 84 % 92 % 1013,6 hPa 0,0 l/m 2,3 km/h (1 Bft) O-NO 67 0 min 1,5 C 3,4 C 0,0 km/h (0 Bft)
15.03.2021 23:05 4,1 C 6,2 C 3,1 C 3,9 C 3,4 C 0,0 C 84 % 92 % 1013,6 hPa 0,0 l/m 2,4 km/h (1 Bft) W-SW 247 0 min 1,6 C 3,4 C 4,8 km/h (1 Bft)
15.03.2021 23:10 4,1 C 6,2 C 3,2 C 3,9 C 3,4 C 0,0 C 83 % 92 % 1013,6 hPa 0,0 l/m 2,7 km/h (1 Bft) S 180 0 min 1,5 C 3,4 C 5,8 km/h (2 Bft)
15.03.2021 23:15 4,0 C 6,2 C 3,2 C 3,8 C 3,4 C 0,0 C 83 % 92 % 1013,6 hPa 0,0 l/m 2,6 km/h (1 Bft) SW 225 0 min 1,4 C 3,4 C 1,9 km/h (1 Bft)
15.03.2021 23:20 4,0 C 6,2 C 3,2 C 3,8 C 3,4 C 0,0 C 83 % 92 % 1013,6 hPa 0,0 l/m 2,3 km/h (1 Bft) W-SW 247 0 min 1,4 C 3,4 C 4,0 km/h (1 Bft)
15.03.2021 23:25 4,0 C 6,2 C 3,1 C 3,8 C 3,4 C 0,0 C 83 % 92 % 1013,6 hPa 0,0 l/m 2,1 km/h (1 Bft) S-SW 202 0 min 1,4 C 3,4 C 3,2 km/h (1 Bft)
15.03.2021 23:30 4,0 C 6,2 C 3,1 C 3,7 C 3,1 C 0,0 C 83 % 92 % 1014,1 hPa 0,0 l/m 3,2 km/h (1 Bft) SW 225 0 min 1,4 C 3,1 C 10,8 km/h (2 Bft)
15.03.2021 23:35 4,0 C 6,2 C 3,2 C 3,8 C 3,4 C 0,0 C 83 % 92 % 1014,1 hPa 0,0 l/m 2,7 km/h (1 Bft) SW 225 0 min 1,4 C 3,4 C 5,3 km/h (1 Bft)
15.03.2021 23:40 4,0 C 6,2 C 3,2 C 3,8 C 3,4 C 0,0 C 83 % 92 % 1014,1 hPa 0,0 l/m 2,3 km/h (1 Bft) W-SW 247 0 min 1,4 C 3,4 C 0,0 km/h (0 Bft)
15.03.2021 23:45 4,0 C 6,2 C 3,1 C 3,8 C 3,4 C 0,0 C 83 % 92 % 1014,1 hPa 0,0 l/m 2,4 km/h (1 Bft) SW 225 0 min 1,4 C 3,4 C 0,0 km/h (0 Bft)
15.03.2021 23:50 3,9 C 6,2 C 3,1 C 3,7 C 3,3 C 0,0 C 83 % 92 % 1013,9 hPa 0,0 l/m 2,9 km/h (1 Bft) SW 225 0 min 1,3 C 3,3 C 5,6 km/h (1 Bft)
15.03.2021 23:55 4,0 C 6,2 C 3,1 C 3,7 C 3,0 C 0,0 C 83 % 92 % 1013,9 hPa 0,0 l/m 3,7 km/h (1 Bft) W-SW 247 0 min 1,4 C 3,0 C 4,3 km/h (1 Bft)
_ Min-Zeit 05:45 04:30 05:20 05:10 11:10 00:00 16:05 00:00 17:10 - 04:50 - - - 05:45 11:10 00:25
Minimum _ 2,5 C 6,0 C 1,9 C 2,2 C 0,8 C 0,0 C 71 % 83 % 1010,0 hPa - 0,0 km/h (0 Bft) - - - -0,4 C -2,1 C 0,0 km/h (0 Bft)
_ Max-Zeit 16:10 19:10 16:00 16:00 16:00 14:20 12:20 10:05 23:30 09:05 18:20 - - 14:20 14:45 16:00 19:10
Maximum _ 7,6 C 6,5 C 7,3 C 10,9 C 10,9 C 3,7 C 88 % 92 % 1014,1 hPa 0,7 l/m 10,9 km/h
W-SW (2 Bft)
- - 5 min 3,8 C 10,9 C 21,2 km/h
W-SW (4 Bft)
Durchschnitt _ 4,2 C 6,2 C 3,7 C 4,2 C 3,6 C 0,3 C 82 % 89 % 1011,5 hPa #6,2 l/m 3,4 km/h (1 Bft) SW - #15 min. 1,4 C 3,1 C 4,9 km/h (1 Bft)
2021 www.wetterstation-wechselburg.de